Погода в Лозном

Россия / Волгоградская область     49°17′05″N   44°25′42″E
темп.,
°C
ветер,
м/с
пор.,
м/с
влажн.,
%
обл.,
%
осадки,
мм/ч
давл.,
гПа
погр.,
м
17 апреля, сб
сб1700:00+13зюз4555100 0.0 101974
03:00+11зсз346456 0.0 101971
06:00+11сз3566100 0.0 101881
09:00+15з2254100 0.0 1018255
12:00+13юз7972100 0.1 1019623
15:00+10з6890100 2.6 1019619
18:00+10зсз46770 0.3 1020554
21:00+8з22850 0.3 102030
18 апреля, вс
вс1800:00+7з12875 0.0 102011
03:00+7зсз11865 0.0 102010
06:00+7сз11855 0.0 102010
09:00+12з226247 0.0 1020520
12:00+14зсз3346100 0.0 10201290
15:00+15зсз3241100 0.0 10191557
18:00+14зсз225081 0.0 101925
21:00+11з22565 0.0 102011
19 апреля, пн
пн1900:00+11с115867 0.0 101910
03:00+9ссв226358 0.0 101910
06:00+9в226789 0.0 101828
09:00+13юв3457100 0.0 1019293
12:00+13в4559100 0.1 1018361
15:00+12всв4766100 0.2 1017264
18:00+12всв41071100 0.1 1017347
21:00+11в71283100 0.3 1016388
20 апреля, вт
вт2000:00+11вюв71482100 0.3 1015466
03:00+10вюв61194100 1.0 1015340
06:00+10в91496100 2.8 1014486
09:00+10в101693100 4.8 1014611
12:00+10в111986100 0.8 1014710
15:00+14вюв142073100 2.1 10121026
18:00+13вюв132076100 4.2 1012971
21:00+14ю81580100 5.2 1015827
21 апреля, ср
ср2100:00+11юв91592100 7.9 1016540
03:00+10юв101592100 10.8 1016394
06:00+10юв71479100 0.1 1017508
09:00+11ююв71081100 0.1 1019805
12:00+11ююв6990100 0.1 1020603
15:00+11ююв798335 0.3 1021514
18:00+12юв5782100 0.4 1021411
21:00+9юв5893100 0.4 1023329